Regional Weather Roundup
Issued by NWS

Home | Current Version | Previous Version | Graphics & Text | Print | Product List | Glossary On
Versions: 1 2 3 4 5 6 7 8 9 10 11 12 13 14 15 16 17 18 19 20 21 22 23 24 25 26 27 28 29 30 31 32 33 34 35 36 37 38 39 40 41 42 43 44 45 46 47 48 49 50
000
ASUS43 KOAX 290310
RWRNE

WEATHER ROUNDUP FOR NEBRASKA
NATIONAL WEATHER SERVICE OMAHA NE
1000 PM CDT THU AUG 28 2014

NOTES: SATELLITE DATA IS BEING USED TO AUGMENT CLOUD COVER ABOVE
       12000 FEET.
       "FAIR" INDICATES FEW OR NO CLOUDS BELOW 12,000 FEET WITH NO
       SIGNIFICANT WEATHER AND/OR OBSTRUCTIONS TO VISIBILITY.

  * THESE STATIONS DO NOT REPORT WEATHER SUCH AS RAIN...SNOW OR FOG.

NEZ001>004-019>022-054>056-290400-
NEBRASKA PANHANDLE

CITY           SKY/WX    TMP DP  RH WIND       PRES   REMARKS
SCOTTSBLUFF    PTCLDY    57  53  86 N5        30.01R
ALLIANCE       MOCLDY    61  55  81 W7        29.99R
CHADRON        MOCLDY    61  56  83 SW6       29.96R
KIMBALL        PTCLDY    56  51  84 W9        30.06S
SIDNEY         CLOUDY    63  54  72 W9        30.05R
$$

NEZ057>060-069>072-079>082-290400-
SOUTHWEST NEBRASKA

CITY           SKY/WX    TMP DP  RH WIND       PRES   REMARKS
NORTH PLATTE   PTCLDY    64  60  87 NW6       29.93R
IMPERIAL       PTCLDY    64  56  75 NW7       29.98R
LEXINGTON      MOCLDY    72  64  78 N10       29.88R
MCCOOK         MOCLDY    69  59  70 W12       29.92R
OGALLALA       MOCLDY    58  55  89 CALM      29.97R
$$

NEZ005>010-023>029-035>040-094-290400-
NORTH CENTRAL NEBRASKA

CITY           SKY/WX    TMP DP  RH WIND       PRES   REMARKS
VALENTINE      CLOUDY    66  62  87 NE7       29.89R
AINSWORTH      CLOUDY    63  59  87 NW3       29.90R
BROKEN BOW     PTCLDY    65  61  87 NW5       29.89R
O`NEILL        MOCLDY    67  66  98 N8        29.85F
ORD            MOCLDY    67  63  87 N8        29.85S
THEDFORD       PTCLDY    63  58  84 CALM      29.92R
$$

NEZ041-046>049-061>064-073>077-083>087-290400-
SOUTH CENTRAL NEBRASKA

CITY           SKY/WX    TMP DP  RH WIND       PRES   REMARKS
GRAND ISLAND   CLOUDY    75  70  84 S7        29.84S
AURORA         CLOUDY    73  70  89 S5        29.84S
HASTINGS       CLOUDY    74  65  73 SW9       29.84S
HEBRON         CLOUDY    75  64  69 S7        29.84S
HOLDREGE       MOCLDY    72  66  82 S5        29.86F
KEARNEY *      MOCLDY    70  66  88 S6        29.86S
YORK           CLOUDY    72 N/A N/A S6        29.84S
$$

NEZ011>018-030>034-042>045-290400-
NORTHEAST NEBRASKA

CITY           SKY/WX    TMP DP  RH WIND       PRES   REMARKS
NORFOLK        MOCLDY    73  69  87 SE8       29.84R
ALBION         CLOUDY    72  69  91 CALM      29.84R FOG
BLAIR          CLOUDY    76  72  88 SE6       29.85S
FREMONT        CLOUDY    74  69  83 SE5       29.85S
TEKAMAH        CLOUDY    75  72  90 S7        29.83S
WAYNE          MOCLDY    72  71  95 S3        29.85R
$$

NEZ050>053-065>068-078-088>093-290400-
SOUTHEAST NEBRASKA

CITY           SKY/WX    TMP DP  RH WIND       PRES   REMARKS
LINCOLN        MOCLDY    73  68  84 S5        29.85R
OMAHA EPPLEY   MOCLDY    76  72  87 SE5       29.84F
BEATRICE       CLOUDY    73  69  88 SE6       29.85S
FALLS CITY     PTCLDY    76  73  91 CALM      29.86R
NEBRASKA CITY  PTCLDY    72  72 100 S3        29.85F
PLATTSMOUTH    MOCLDY    75  72  90 CALM      29.86S
$$

NEZ044-045-051>053-067-290400-
OMAHA AREA

CITY           SKY/WX    TMP DP  RH WIND       PRES   REMARKS
OMAHA EPPLEY   MOCLDY    76  72  87 SE5       29.84F
BLAIR          CLOUDY    76  72  88 SE6       29.85S
FREMONT        CLOUDY    74  69  83 SE5       29.85S
MILLARD        MOCLDY    75  73  91 CALM      29.85S
OFFUTT AFB     MOCLDY    74  74  99 SE2       29.84S
PLATTSMOUTH    MOCLDY    75  72  90 CALM      29.86S
WAHOO          FAIR      72  68  88 SE6       29.85R
$$


USA.gov is the U.S. government's official web portal to all federal, state and local government web resources and services.